[[{"header":{"parameterUnit":"m.s-1","parameterCategory":2,"la1":30.2991,"la2":30.254,"lo1":-89.0895,"lo2":-89.0444,"dy":0.0017,"dx":0.0017,"nx":28,"ny":28,"refTime":"2023-09-06T21:00:00:Z","depth":"0","parameterNumber":2,"parameterNumberName":"U-component_of_CURRENTS"},"data":[0,0,0,0,0,0,0,0,0,0,0,0,0,0,0,0,0,0,0,0,0,0,0,0,0,0,0,0,0,0,0,0,0,0,0,0,0,0,0,0,0,0,0,0,0,0,0,0,0,0,0,0,0,0,0,0,0,0,0.3023,0.3022,0,0.3025,0.3025,0.3025,0.3043,0.3043,0.3043,0.3043,0.3103,0.3105,0.3106,0,0,0,0,0,0,0,0,0,0,0,0,0,0.3151,0.3148,0.3023,0.3022,0.3022,0.3025,0.3025,0.3026,0.3043,0.3043,0.3043,0.3043,0.3103,0.3105,0.3106,0,0,0,0,0,0,0,0,0,0,0,0,0,0.3121,0.3147,0.3023,0.3029,0.3029,0.3025,0.3025,0.3026,0.3042,0.3043,0.3043,0.3043,0.3102,0.3104,0.3107,0.3117,0,0,0.3113,0.3114,0,0,0,0,0,0,0,0,0.3123,0.3117,0.3028,0.3028,0.3028,0.3031,0.3092,0.3058,0.3042,0.3041,0.3043,0.3043,0.3082,0.3086,0.309,0.312,0.3122,0.3114,0.3115,0.3116,0.3117,0,0,0,0,0,0,0,0.3125,0.3118,0.3027,0.3028,0.3028,0.3071,0.3067,0.3087,0.3064,0.3041,0.3041,0.3036,0.3083,0.3088,0.3092,0.3123,0.3114,0.3116,0.3117,0.3118,0.3188,0.3188,0,0,0,0,0,0,0.3111,0.3118,0.3027,0.3027,0.3073,0.3068,0.3063,0.3032,0.3063,0.3066,0.3036,0.3037,0.3084,0.3089,0.3094,0.3123,0.3116,0.3118,0.3119,0.3187,0.3188,0.3189,0,0,0,0,0,0,0.3113,0.3101,0.3027,0.3072,0.3065,0.3064,0.3031,0.3032,0.3037,0.3058,0.3063,0.3039,0.3084,0.3091,0.3121,0.3125,0.3119,0.3121,0.3187,0.3188,0.3188,0.3171,0,0,0,0,0,0,0.3116,0.3102,0.3093,0.307,0.3062,0.3023,0.303,0.3032,0.3032,0.3034,0.3062,0.3068,0.3085,0.3117,0.3123,0.3128,0.3123,0.3186,0.3187,0.3188,0.3171,0.3171,0.3171,0,0,0,0,0,0.3121,0.3099,0.3092,0.3082,0.3042,0.3023,0.3023,0.3028,0.3032,0.3033,0.3059,0.3067,0.3127,0.312,0.3126,0.3131,0.3186,0.3187,0.3188,0.3171,0.3171,0.3171,0,0,0,0,0,0,0.3152,0.3098,0.309,0.3053,0.304,0.3024,0.3023,0.3026,0.3046,0.3048,0.3075,0.3083,0.312,0.3125,0.3116,0.3155,0.3157,0.316,0.3142,0.3142,0.3142,0.3133,0.3125,0,0,0,0,0,0.3151,0.3118,0.3084,0.3057,0.3043,0.3034,0.3032,0.3029,0.3034,0.3042,0.3063,0.309,0.3129,0.3134,0.3169,0.3179,0.3173,0.3187,0.3187,0.3187,0.3186,0.3187,0.3187,0.3192,0.3192,0.3192,0,0,0.3153,0.3122,0.3103,0.3062,0.3047,0.3021,0.3034,0.3016,0.3016,0.3047,0.3061,0.31,0.3138,0.3164,0.3178,0.3165,0.3179,0.3189,0.3188,0.3187,0.3188,0.3187,0.3187,0.3193,0.3193,0.3193,0,0,0.3121,0.3108,0.306,0.3045,0.3016,0.3019,0.3012,0.2996,0.3012,0.3025,0.3064,0.31,0.3133,0.3165,0.3186,0.3204,0.3195,0.3214,0.3188,0.319,0.3189,0.3188,0.3158,0.3155,0.3194,0.3194,0.3194,0,0.3129,0.3054,0.3051,0.3004,0.2992,0.3012,0.2971,0.2994,0.3,0.3016,0.3025,0.3097,0.3134,0.3174,0.3189,0.3204,0.3191,0.3183,0.3188,0.3187,0.3187,0.3156,0.3153,0.3194,0.3194,0.3194,0.3194,0,0.3046,0.3002,0.2976,0.2922,0.2925,0.2893,0.2914,0.2935,0.2961,0.298,0.3029,0.3081,0.3116,0.3141,0.3174,0.3196,0.3184,0.3201,0.3182,0.3185,0.3153,0.315,0.3193,0.3193,0.3193,0.3193,0,0,0.3007,0.2929,0.2919,0.2889,0.2876,0.2868,0.2887,0.2905,0.2926,0.2956,0.2977,0.3054,0.3083,0.311,0.3155,0.3161,0.3155,0.3175,0.3176,0.3136,0.3129,0.3073,0.3064,0.317,0.3169,0.3169,0.31,0,0.2936,0.2834,0.2828,0.2775,0.2727,0.2775,0.2801,0.2839,0.2886,0.2925,0.2987,0.3032,0.3071,0.3095,0.311,0.3168,0.3149,0.317,0.3142,0.3141,0.3083,0.306,0.2945,0.2871,0.3097,0.3096,0.3096,0,0.2841,0.279,0.2701,0.2695,0.2685,0.2683,0.2737,0.2763,0.2842,0.2879,0.2923,0.2979,0.3027,0.3054,0.3092,0.3102,0.3107,0.3129,0.3127,0.308,0.3079,0.2911,0.2856,0.2799,0.3091,0.3091,0.3092,0,0.2782,0.2714,0.2646,0.2631,0.2625,0.2633,0.2667,0.2739,0.278,0.2849,0.2878,0.2934,0.2973,0.2993,0.3056,0.3066,0.3082,0.3096,0.3032,0.3027,0.2927,0.2913,0.2806,0.3086,0.3086,0.3086,0.3086,0,0.2688,0.2643,0.2616,0.2567,0.2555,0.2584,0.2605,0.2656,0.2729,0.2773,0.2848,0.2888,0.2964,0.2997,0.3027,0.3018,0.3046,0.3016,0.3007,0.2916,0.2903,0.2848,0.2846,0.3083,0.3084,0.3085,0.3085,0,0.2604,0.2575,0.2509,0.2495,0.2504,0.2502,0.2565,0.2591,0.2668,0.2725,0.2745,0.2849,0.2892,0.2945,0.2987,0.2974,0.2886,0.2961,0.2837,0.2814,0.2684,0.2686,0.2453,0.2388,0.2851,0.2849,0.2848,0,0.2541,0.2477,0.2448,0.2436,0.2423,0.2438,0.2459,0.2545,0.2583,0.2702,0.2724,0.2793,0.2841,0.2867,0.2864,0.2849,0.2805,0.2711,0.2714,0.2642,0.2638,0.2537,0.2494,0.2562,0.2559,0.2556,0.2553,0,0.2419,0.2407,0.236,0.2337,0.234,0.2352,0.2393,0.2415,0.2526,0.2572,0.2644,0.2691,0.2747,0.27,0.269,0.2674,0.2569,0.2646,0.2606,0.2422,0.2269,0.2215,0.2633,0.2526,0.2529,0.2531,0.2532,0.2533,0.2347,0.2301,0.2251,0.2233,0.2242,0.2252,0.2236,0.2296,0.2332,0.2389,0.2512,0.2535,0.2561,0.2543,0.2503,0.2363,0.2382,0.2281,0.229,0.2195,0.2115,0.246,0.2334,0.2335,0.2337,0.2338,0.2339,0,0.2233,0.219,0.2161,0.2125,0.2101,0.215,0.2173,0.2147,0.2139,0.2242,0.2287,0.2304,0.2245,0.2245,0.2142,0.2032,0.1936,0.1965,0.1812,0.1795,0.2126,0.2101,0.1877,0.1877,0.1877,0.1878,0.1878,0.1878,0.2176,0.2082,0.2063,0.1985,0.1974,0.1917,0.1907,0.1891,0.1933,0.1929,0.1942,0.2002,0.2066,0.1991,0.1852,0.1794,0.1665,0.1542,0.1578,0.1853,0.1884,0.1913,0.1888,0.1623,0.1622,0.1146,0.1143,0.114]},{"header":{"parameterUnit":"m.s-1","parameterCategory":2,"la1":30.2991,"la2":30.254,"lo1":-89.0895,"lo2":-89.0444,"dy":0.0017,"dx":0.0017,"nx":28,"ny":28,"refTime":"2023-09-06T21:00:00:Z","depth":"0","parameterNumber":3,"parameterNumberName":"V-component_of_CURRENTS"},"data":[0,0,0,0,0,0,0,0,0,0,0,0,0,0,0,0,0,0,0,0,0,0,0,0,0,0,0,0,0,0,0,0,0,0,0,0,0,0,0,0,0,0,0,0,0,0,0,0,0,0,0,0,0,0,0,0,0,0,0.0507,0.0506,0,0.0477,0.0476,0.0476,0.0455,0.0454,0.0454,0.0454,0.0406,0.0405,0.0404,0,0,0,0,0,0,0,0,0,0,0,0,0,0.0518,0.0518,0.0507,0.0506,0.0506,0.0477,0.0476,0.0476,0.0455,0.0454,0.0454,0.0454,0.0406,0.0405,0.0404,0,0,0,0,0,0,0,0,0,0,0,0,0,0.0504,0.0518,0.0507,0.0491,0.0489,0.0477,0.0476,0.0476,0.0455,0.0454,0.0454,0.0454,0.0407,0.0405,0.0404,0.0401,0,0,0.0399,0.0398,0,0,0,0,0,0,0,0,0.0504,0.0503,0.0494,0.0492,0.049,0.0468,0.0463,0.045,0.0455,0.0469,0.0454,0.0454,0.0425,0.0422,0.0418,0.0399,0.0397,0.0399,0.0398,0.0397,0.0397,0,0,0,0,0,0,0,0.0505,0.0504,0.0495,0.0493,0.0491,0.0476,0.0474,0.046,0.0449,0.0467,0.0466,0.0461,0.0424,0.042,0.0417,0.0396,0.0399,0.0397,0.0396,0.0396,0.0365,0.0365,0,0,0,0,0,0,0.051,0.0505,0.0496,0.0494,0.0496,0.0476,0.0474,0.0476,0.045,0.0445,0.0462,0.046,0.0423,0.0419,0.0415,0.0414,0.0397,0.0396,0.0395,0.0365,0.0365,0.0365,0,0,0,0,0,0,0.051,0.0509,0.0498,0.0498,0.0495,0.0477,0.0479,0.0476,0.0472,0.0446,0.0441,0.0461,0.0422,0.0417,0.0406,0.0412,0.0395,0.0393,0.0364,0.0365,0.0365,0.0409,0,0,0,0,0,0,0.0511,0.051,0.0516,0.0499,0.0496,0.0492,0.0479,0.0476,0.0469,0.0468,0.0443,0.0439,0.0422,0.0409,0.0405,0.0409,0.0392,0.0364,0.0364,0.0365,0.0408,0.0411,0.0414,0,0,0,0,0,0.0511,0.0522,0.0517,0.0516,0.0504,0.0492,0.0489,0.0475,0.047,0.047,0.0455,0.0439,0.0407,0.0408,0.0403,0.0407,0.0364,0.0364,0.0365,0.0406,0.041,0.0414,0,0,0,0,0,0,0.0524,0.052,0.0514,0.0521,0.0508,0.0488,0.0488,0.0478,0.0467,0.0466,0.0443,0.0437,0.0427,0.0411,0.0413,0.0398,0.0382,0.0381,0.0415,0.0419,0.0422,0.0442,0.0391,0,0,0,0,0,0.0531,0.0541,0.0526,0.053,0.0526,0.0508,0.0503,0.0492,0.0478,0.0473,0.0457,0.0439,0.0425,0.0418,0.0401,0.0396,0.0383,0.0394,0.0397,0.04,0.0412,0.0402,0.0405,0.0366,0.0366,0.0366,0,0,0.0535,0.0535,0.0539,0.0534,0.0523,0.052,0.0504,0.0497,0.0499,0.0469,0.0468,0.0448,0.0425,0.0418,0.0413,0.0407,0.0402,0.0401,0.0403,0.0414,0.0402,0.0406,0.041,0.0366,0.0366,0.0366,0,0,0.0544,0.0549,0.0556,0.055,0.0538,0.0531,0.0531,0.0513,0.0512,0.0506,0.0486,0.0474,0.0451,0.044,0.043,0.044,0.0417,0.043,0.0465,0.0454,0.0458,0.046,0.0441,0.0442,0.0434,0.0434,0.0434,0,0.0546,0.0556,0.0554,0.0555,0.0555,0.0538,0.0541,0.0538,0.052,0.0527,0.0511,0.0489,0.0464,0.0465,0.0466,0.0449,0.0436,0.0454,0.0459,0.0462,0.0464,0.0444,0.0445,0.0436,0.0436,0.0436,0.0435,0,0.0558,0.0563,0.0566,0.0568,0.0569,0.0568,0.0564,0.0569,0.0565,0.0561,0.0562,0.0532,0.0521,0.0507,0.049,0.0495,0.0478,0.0463,0.0454,0.0471,0.0448,0.0448,0.0439,0.0439,0.0438,0.0437,0,0,0.0567,0.0574,0.0574,0.0582,0.0579,0.0584,0.0596,0.0607,0.063,0.0609,0.0632,0.06,0.0587,0.0576,0.0549,0.0541,0.0537,0.0514,0.0513,0.0502,0.0509,0.0487,0.0484,0.0524,0.0525,0.0525,0.0484,0,0.0573,0.0586,0.0591,0.0606,0.0611,0.0615,0.0636,0.0646,0.0654,0.0673,0.0652,0.0657,0.0612,0.0611,0.0594,0.0555,0.0539,0.0549,0.0488,0.0486,0.047,0.0485,0.0514,0.048,0.0483,0.0483,0.0483,0,0.0586,0.0592,0.0608,0.0637,0.0644,0.0656,0.07,0.0718,0.0741,0.0748,0.0747,0.0728,0.0713,0.0674,0.0616,0.0625,0.0572,0.0538,0.0535,0.0503,0.0464,0.0463,0.0479,0.0425,0.0482,0.0482,0.0482,0,0.0601,0.0614,0.0633,0.0637,0.066,0.0683,0.0709,0.074,0.0781,0.08,0.0828,0.0793,0.0791,0.0725,0.064,0.0632,0.0577,0.0552,0.0481,0.0478,0.0486,0.0484,0.0452,0.0513,0.0513,0.0513,0.0513,0,0.0615,0.0631,0.0643,0.065,0.0698,0.0707,0.0772,0.0795,0.0843,0.0908,0.0869,0.0905,0.0807,0.0762,0.0669,0.0576,0.0592,0.0495,0.0472,0.05,0.0499,0.0439,0.0405,0.0512,0.0512,0.0512,0.0513,0,0.0628,0.0634,0.0657,0.0683,0.0704,0.074,0.0826,0.088,0.0911,0.0994,0.1006,0.0993,0.0938,0.0827,0.0722,0.0623,0.0496,0.0486,0.0521,0.0503,0.0385,0.0352,0.0284,0.0267,0.0407,0.0407,0.0406,0,0.0638,0.0645,0.0683,0.0718,0.0733,0.0796,0.0857,0.0911,0.0979,0.1057,0.1106,0.1076,0.108,0.0903,0.0726,0.056,0.0489,0.046,0.0447,0.0391,0.0337,0.0307,0.0296,0.0469,0.0469,0.0469,0.0469,0,0.0647,0.0657,0.0679,0.075,0.0813,0.0894,0.0983,0.1048,0.1131,0.1201,0.1281,0.1289,0.1133,0.0989,0.0746,0.062,0.0437,0.0454,0.0396,0.0387,0.0355,0.0324,0.0473,0.0469,0.0469,0.0469,0.0469,0.0469,0.0658,0.0679,0.0718,0.0793,0.0873,0.0987,0.1068,0.117,0.1291,0.1409,0.1409,0.1448,0.1235,0.0919,0.0735,0.044,0.0437,0.0364,0.0329,0.0303,0.0292,0.0434,0.0402,0.0401,0.0401,0.0401,0.04,0,0.066,0.0702,0.0769,0.0863,0.096,0.1003,0.1153,0.1243,0.1389,0.15,0.157,0.1514,0.125,0.0959,0.0561,0.0363,0.0294,0.0258,0.0239,0.0234,0.0367,0.0376,0.0337,0.0337,0.0337,0.0337,0.0337,0.0337,0.067,0.0721,0.0761,0.0917,0.0998,0.1138,0.1227,0.1361,0.1473,0.1619,0.1669,0.1687,0.1497,0.0786,0.0357,0.0262,0.0158,0.0117,0.0059,0.0165,0.0173,0.018,0.0181,0.0103,0.0102,-0.0033,-0.0035,-0.0036]}],[{"header":{"parameterUnit":"m.s-1","parameterCategory":2,"la1":30.2991,"la2":30.254,"lo1":-89.0895,"lo2":-89.0444,"dy":0.0017,"dx":0.0017,"nx":28,"ny":28,"refTime":"2023-09-06T21:00:00:Z","depth":"2","parameterNumber":2,"parameterNumberName":"U-component_of_CURRENTS"},"data":[0,0,0,0,0,0,0,0,0,0,0,0,0,0,0,0,0,0,0,0,0,0,0,0,0,0,0,0,0,0,0,0,0,0,0,0,0,0,0,0,0,0,0,0,0,0,0,0,0,0,0,0,0,0,0,0,0,0,0.235,0.235,0,0.2422,0.2423,0.2424,0.2484,0.2484,0.2484,0.2484,0.2485,0.2485,0.2485,0,0,0,0,0,0,0,0,0,0,0,0,0,0.2351,0.235,0.235,0.235,0.2351,0.2422,0.2423,0.2424,0.2484,0.2484,0.2484,0.2485,0.2485,0.2485,0.2485,0,0,0,0,0,0,0,0,0,0,0,0,0,0.2382,0.235,0.235,0.2386,0.239,0.2421,0.2423,0.2425,0.2483,0.2484,0.2484,0.2485,0.2485,0.2485,0.2485,0.2473,0,0,0.2483,0.2483,0,0,0,0,0,0,0,0,0.238,0.2383,0.238,0.2384,0.2388,0.2441,0.2424,0.2436,0.2483,0.2452,0.2484,0.2485,0.2461,0.2463,0.2481,0.2473,0.2473,0.2483,0.2483,0.2483,0.2483,0,0,0,0,0,0,0,0.2378,0.238,0.2382,0.2381,0.2386,0.2429,0.2433,0.2427,0.2454,0.2455,0.2458,0.246,0.2463,0.2482,0.2481,0.2473,0.2483,0.2483,0.2483,0.2483,0.2528,0.253,0,0,0,0,0,0,0.2357,0.2377,0.238,0.2384,0.2381,0.2428,0.2433,0.2427,0.2456,0.2461,0.246,0.2463,0.2482,0.2482,0.2482,0.2508,0.2483,0.2482,0.2482,0.2527,0.2528,0.253,0,0,0,0,0,0,0.2356,0.2356,0.2377,0.238,0.2386,0.2426,0.2419,0.2428,0.2458,0.246,0.2464,0.2482,0.2483,0.2482,0.2493,0.2506,0.2482,0.2482,0.2525,0.2527,0.2529,0.2534,0,0,0,0,0,0,0.2356,0.2355,0.2349,0.2378,0.2384,0.2401,0.2419,0.2429,0.2456,0.2461,0.248,0.2481,0.2483,0.2494,0.2493,0.2505,0.2482,0.2523,0.2526,0.2529,0.2532,0.2536,0.254,0,0,0,0,0,0.2355,0.235,0.2348,0.2349,0.2372,0.2401,0.2409,0.2442,0.2457,0.2472,0.2489,0.2481,0.2511,0.2494,0.2492,0.2505,0.2522,0.2525,0.2528,0.2531,0.2536,0.254,0,0,0,0,0,0,0.234,0.2356,0.2355,0.2351,0.2373,0.241,0.2435,0.2446,0.2475,0.2486,0.2487,0.2489,0.2508,0.2509,0.249,0.2532,0.2519,0.2523,0.2522,0.2527,0.253,0.2542,0.2481,0,0,0,0,0,0.233,0.2338,0.2353,0.2351,0.2369,0.2401,0.2419,0.2438,0.2462,0.2478,0.2489,0.2507,0.2519,0.2523,0.2536,0.2545,0.2539,0.256,0.2563,0.2566,0.2578,0.258,0.2584,0.2541,0.2541,0.2541,0,0,0.2332,0.2333,0.2343,0.235,0.2381,0.2399,0.2416,0.2451,0.2462,0.2469,0.25,0.2517,0.2527,0.2548,0.2557,0.2549,0.2574,0.2571,0.2573,0.2583,0.2584,0.2588,0.2591,0.2543,0.2543,0.2542,0,0,0.2335,0.2337,0.235,0.2365,0.2393,0.2411,0.2419,0.2459,0.2481,0.2504,0.2518,0.2552,0.2562,0.2584,0.2591,0.2624,0.2595,0.2622,0.2643,0.2645,0.2648,0.265,0.2633,0.2634,0.2621,0.2621,0.2621,0,0.233,0.2328,0.2359,0.2367,0.2374,0.2414,0.2422,0.2454,0.2487,0.2497,0.2518,0.2564,0.2588,0.2602,0.2634,0.2633,0.2613,0.2618,0.2647,0.265,0.2652,0.2634,0.2635,0.2622,0.2622,0.2622,0.2622,0,0.2335,0.2337,0.2353,0.2369,0.2385,0.2402,0.2435,0.2462,0.2492,0.2514,0.2549,0.2592,0.2616,0.2637,0.2653,0.268,0.2652,0.2648,0.2627,0.2656,0.2635,0.2636,0.2623,0.2623,0.2622,0.2622,0,0,0.2307,0.2345,0.2348,0.235,0.2379,0.2393,0.2422,0.2446,0.2469,0.2516,0.2538,0.2602,0.263,0.2644,0.2663,0.2689,0.271,0.2683,0.2682,0.2651,0.2686,0.2624,0.2618,0.2693,0.2693,0.2694,0.2657,0,0.2295,0.2298,0.2319,0.233,0.2339,0.2373,0.2395,0.2426,0.2467,0.2507,0.2557,0.2597,0.2624,0.2651,0.2677,0.2711,0.2715,0.2719,0.2676,0.2675,0.2605,0.2619,0.243,0.2378,0.2658,0.2658,0.2658,0,0.2279,0.228,0.2279,0.2302,0.2312,0.2324,0.2357,0.2384,0.2447,0.2485,0.2526,0.2566,0.2624,0.265,0.2688,0.2679,0.2688,0.2709,0.2706,0.2651,0.2615,0.24,0.2369,0.2659,0.2659,0.2659,0.2659,0,0.2229,0.2249,0.2238,0.2244,0.2282,0.229,0.2317,0.2374,0.2404,0.2474,0.2512,0.2555,0.2603,0.2618,0.2681,0.2676,0.2714,0.2702,0.2639,0.2634,0.247,0.2449,0.2714,0.2714,0.2714,0.2714,0.2714,0,0.2186,0.2184,0.2218,0.2213,0.2216,0.2258,0.228,0.2323,0.2389,0.2428,0.2497,0.2535,0.2603,0.2636,0.2662,0.2655,0.2686,0.2646,0.2625,0.2466,0.2446,0.2695,0.2693,0.2713,0.2713,0.2713,0.2713,0,0.2134,0.2154,0.2149,0.218,0.2193,0.2197,0.2256,0.2279,0.2355,0.2408,0.2433,0.2525,0.2569,0.2612,0.2657,0.2631,0.2636,0.2619,0.2425,0.2382,0.2551,0.255,0.2525,0.2523,0.2521,0.2519,0.2518,0,0.2101,0.2095,0.2116,0.2114,0.2127,0.215,0.217,0.2249,0.2281,0.2396,0.2415,0.249,0.2524,0.2552,0.2533,0.2515,0.2591,0.2313,0.2287,0.2552,0.2534,0.2536,0.2539,0.206,0.2055,0.2051,0.2048,0,0.204,0.2053,0.2047,0.2049,0.2059,0.2073,0.2113,0.2134,0.2233,0.2277,0.2341,0.2382,0.2428,0.2331,0.232,0.229,0.2302,0.2228,0.2545,0.215,0.2114,0.2097,0.2114,0.2011,0.2015,0.2017,0.2019,0.2021,0.1994,0.1972,0.1973,0.1965,0.1978,0.1982,0.1965,0.2017,0.2046,0.2091,0.2202,0.2191,0.2204,0.2095,0.2016,0.1948,0.2112,0.2004,0.2016,0.2033,0.1998,0.1963,0.1823,0.1825,0.1827,0.1829,0.1831,0,0.1912,0.1902,0.1892,0.187,0.1845,0.1893,0.1908,0.1874,0.186,0.1935,0.1966,0.1811,0.1742,0.1756,0.16,0.158,0.1563,0.1505,0.1469,0.1507,0.1541,0.1481,0.1168,0.1166,0.1164,0.1162,0,0,0.1874,0.1824,0.1811,0.1738,0.173,0.1672,0.1658,0.163,0.1649,0.161,0.1588,0.1709,0.1741,0.1453,0.1396,0.1258,0.1378,0.1206,0.1743,0.1744,0.1775,0.1838,0.179,0,0,0,0,0]},{"header":{"parameterUnit":"m.s-1","parameterCategory":2,"la1":30.2991,"la2":30.254,"lo1":-89.0895,"lo2":-89.0444,"dy":0.0017,"dx":0.0017,"nx":28,"ny":28,"refTime":"2023-09-06T21:00:00:Z","depth":"2","parameterNumber":3,"parameterNumberName":"V-component_of_CURRENTS"},"data":[0,0,0,0,0,0,0,0,0,0,0,0,0,0,0,0,0,0,0,0,0,0,0,0,0,0,0,0,0,0,0,0,0,0,0,0,0,0,0,0,0,0,0,0,0,0,0,0,0,0,0,0,0,0,0,0,0,0,0.0285,0.0285,0,0.027,0.0269,0.0269,0.0257,0.0257,0.0257,0.0257,0.0212,0.021,0.0209,0,0,0,0,0,0,0,0,0,0,0,0,0,0.0267,0.0268,0.0285,0.0285,0.0285,0.027,0.0269,0.0269,0.0257,0.0257,0.0257,0.0257,0.0212,0.0211,0.0209,0,0,0,0,0,0,0,0,0,0,0,0,0,0.0265,0.0268,0.0285,0.0278,0.0277,0.027,0.0269,0.0269,0.0257,0.0257,0.0257,0.0257,0.0213,0.0211,0.0209,0.0197,0,0,0.0203,0.0203,0,0,0,0,0,0,0,0,0.0265,0.0265,0.0279,0.0278,0.0278,0.0267,0.0247,0.0244,0.0257,0.0263,0.0257,0.0257,0.0228,0.0225,0.0221,0.0195,0.0193,0.0203,0.0202,0.0201,0.0201,0,0,0,0,0,0,0,0.0265,0.0266,0.0277,0.0279,0.0278,0.0263,0.0263,0.0246,0.0244,0.0263,0.0262,0.0263,0.0227,0.0222,0.0219,0.0193,0.0203,0.0202,0.02,0.02,0.0172,0.0172,0,0,0,0,0,0,0.0272,0.0266,0.0278,0.0277,0.0273,0.0264,0.0264,0.0269,0.0245,0.0242,0.0263,0.0262,0.0225,0.0221,0.0218,0.0225,0.0201,0.02,0.0198,0.0171,0.0172,0.0172,0,0,0,0,0,0,0.0272,0.0273,0.0278,0.0272,0.0272,0.0265,0.027,0.0269,0.027,0.0246,0.0242,0.0267,0.0225,0.022,0.0211,0.0222,0.0199,0.0197,0.0171,0.0171,0.0172,0.0225,0,0,0,0,0,0,0.0271,0.0273,0.0277,0.0273,0.0272,0.0283,0.027,0.0268,0.027,0.027,0.0247,0.0243,0.0225,0.0214,0.0209,0.0219,0.0196,0.017,0.0171,0.0172,0.0223,0.0227,0.0231,0,0,0,0,0,0.0271,0.0283,0.0278,0.0279,0.0279,0.0283,0.0282,0.0275,0.0271,0.0275,0.0261,0.0244,0.0215,0.0213,0.0207,0.0217,0.017,0.0171,0.0172,0.0221,0.0227,0.0231,0,0,0,0,0,0,0.0274,0.0283,0.0277,0.0289,0.0288,0.0282,0.0288,0.0281,0.0273,0.0273,0.0248,0.0242,0.0237,0.0219,0.0218,0.021,0.019,0.0189,0.0229,0.0234,0.0238,0.0257,0.0194,0,0,0,0,0,0.0277,0.0291,0.029,0.0299,0.0303,0.0295,0.0295,0.0292,0.0285,0.0282,0.0266,0.0249,0.0234,0.0229,0.0212,0.0209,0.0191,0.0211,0.0215,0.0219,0.023,0.0212,0.0216,0.0175,0.0175,0.0175,0,0,0.0281,0.0287,0.0294,0.0301,0.0301,0.0311,0.0295,0.0304,0.0312,0.0277,0.0283,0.0261,0.0236,0.0233,0.0229,0.0221,0.022,0.022,0.0223,0.0233,0.0214,0.0218,0.0221,0.0175,0.0175,0.0175,0,0,0.03,0.0303,0.0322,0.0325,0.033,0.0327,0.0332,0.033,0.0331,0.0332,0.0308,0.0299,0.0276,0.0265,0.0255,0.0272,0.024,0.026,0.0301,0.0284,0.0287,0.029,0.0271,0.0271,0.0266,0.0266,0.0267,0,0.0302,0.0325,0.0326,0.0342,0.0349,0.0338,0.0355,0.0355,0.0349,0.0354,0.0342,0.0317,0.0295,0.0294,0.0301,0.0283,0.0264,0.0285,0.029,0.0292,0.0294,0.0274,0.0274,0.0269,0.0269,0.0269,0.0268,0,0.0337,0.0349,0.0363,0.038,0.0387,0.0401,0.0402,0.041,0.0407,0.0403,0.0404,0.0376,0.0362,0.0352,0.0333,0.0337,0.0315,0.0295,0.028,0.0302,0.0279,0.0278,0.0273,0.0272,0.0271,0.0271,0,0,0.0354,0.0382,0.0385,0.0399,0.0409,0.0421,0.044,0.0455,0.0475,0.0461,0.048,0.0455,0.0437,0.0425,0.0396,0.0386,0.0381,0.0352,0.035,0.0339,0.0339,0.0322,0.0319,0.0358,0.0358,0.0358,0.0316,0,0.0378,0.0415,0.0424,0.0455,0.0474,0.0476,0.0497,0.0508,0.0512,0.0526,0.0504,0.0506,0.0465,0.0462,0.0443,0.0397,0.0382,0.0394,0.0315,0.0313,0.03,0.0319,0.0332,0.0295,0.0315,0.0315,0.0315,0,0.0414,0.043,0.0466,0.0499,0.051,0.0527,0.0564,0.0584,0.0598,0.0602,0.0596,0.0573,0.0558,0.052,0.0456,0.0464,0.0408,0.0371,0.0368,0.0336,0.0295,0.0276,0.0293,0.0313,0.0313,0.0313,0.0313,0,0.0433,0.0465,0.0495,0.0504,0.0535,0.0558,0.0582,0.0606,0.0641,0.0652,0.0674,0.0636,0.063,0.0559,0.0476,0.0465,0.0404,0.0375,0.0308,0.0305,0.0294,0.0291,0.0331,0.0331,0.0332,0.0332,0.0332,0,0.0462,0.0486,0.0506,0.0523,0.0571,0.0584,0.0643,0.0662,0.07,0.0752,0.0713,0.0738,0.064,0.0591,0.05,0.0405,0.0416,0.0323,0.0298,0.0312,0.0311,0.0308,0.0305,0.033,0.033,0.0331,0.0331,0,0.0482,0.0496,0.053,0.0562,0.0582,0.0617,0.0692,0.0738,0.0763,0.083,0.0839,0.0817,0.0757,0.0649,0.054,0.0446,0.0351,0.0311,0.0334,0.0312,0.0257,0.0258,0.0236,0.0235,0.0235,0.0234,0.0234,0,0.0499,0.0515,0.0557,0.0589,0.0608,0.0665,0.0719,0.0768,0.0824,0.0885,0.0923,0.0886,0.0874,0.0701,0.0538,0.0379,0.0351,0.0273,0.0256,0.0272,0.0249,0.0251,0.0253,0.0258,0.0258,0.0258,0.0258,0,0.0518,0.0528,0.0554,0.0619,0.0675,0.0749,0.0827,0.0883,0.0952,0.1007,0.1066,0.106,0.0908,0.0756,0.0531,0.0417,0.0298,0.0263,0.0278,0.0282,0.029,0.0268,0.027,0.0256,0.0256,0.0256,0.0256,0.0256,0.0528,0.0547,0.0585,0.0652,0.0725,0.0825,0.0895,0.0982,0.1081,0.1169,0.1163,0.1158,0.0978,0.0701,0.0498,0.0283,0.0303,0.0217,0.0219,0.0221,0.0232,0.0239,0.0197,0.0197,0.0197,0.0197,0.0197,0,0.0526,0.0563,0.0623,0.0706,0.0792,0.0835,0.0965,0.1037,0.1155,0.1231,0.1278,0.1108,0.0936,0.072,0.0414,0.0229,0.021,0.0153,0.0177,0.0181,0.0184,0.0194,0.0148,0.0147,0.0147,0.0146,0,0,0.0529,0.0573,0.0609,0.0743,0.0817,0.0939,0.1016,0.1126,0.1208,0.1279,0.1283,0.1264,0.1014,0.0775,0.0522,0.0341,0.0299,0.0294,0.0356,0.042,0.0425,0.0247,0.027,0,0,0,0,0]}],[{"header":{"parameterUnit":"m.s-1","parameterCategory":2,"la1":30.2991,"la2":30.254,"lo1":-89.0895,"lo2":-89.0444,"dy":0.0017,"dx":0.0017,"nx":28,"ny":28,"refTime":"2023-09-06T21:00:00:Z","depth":"4","parameterNumber":2,"parameterNumberName":"U-component_of_CURRENTS"},"data":[0,0,0,0,0,0,0,0,0,0,0,0,0,0,0,0,0,0,0,0,0,0,0,0,0,0,0,0,0,0,0,0,0,0,0,0,0,0,0,0,0,0,0,0,0,0,0,0,0,0,0,0,0,0,0,0,0,0,0.1436,0.1437,0,0.1437,0.1437,0.1436,0.1446,0.1447,0.1447,0.1448,0.1459,0.1459,0.1458,0,0,0,0,0,0,0,0,0,0,0,0,0,0.1347,0.1349,0.1436,0.1437,0.1438,0.1437,0.1437,0.1436,0.1445,0.1447,0.1448,0.1449,0.146,0.1459,0.1458,0,0,0,0,0,0,0,0,0,0,0,0,0,0.1364,0.1349,0.1436,0.1448,0.1449,0.1437,0.1437,0.1436,0.1445,0.1447,0.1448,0.1449,0.146,0.1459,0.1458,0.1426,0,0,0.1456,0.1455,0,0,0,0,0,0,0,0,0.1363,0.1366,0.1446,0.1447,0.1449,0.1449,0.141,0.1435,0.1445,0.1439,0.1448,0.145,0.1461,0.146,0.1446,0.1426,0.1427,0.1456,0.1455,0.1455,0.1455,0,0,0,0,0,0,0,0.1362,0.1366,0.1429,0.1446,0.1448,0.1421,0.1425,0.1413,0.1437,0.144,0.1442,0.1453,0.1461,0.1447,0.1447,0.1427,0.1456,0.1455,0.1454,0.1454,0.1495,0.1497,0,0,0,0,0,0,0.1381,0.1365,0.1429,0.143,0.1417,0.1422,0.1426,0.1442,0.1437,0.1439,0.1452,0.1454,0.1448,0.1448,0.1447,0.1495,0.1455,0.1454,0.1454,0.1494,0.1496,0.1497,0,0,0,0,0,0,0.1379,0.1386,0.1429,0.1403,0.1408,0.1424,0.144,0.1441,0.1464,0.1448,0.1449,0.1479,0.1449,0.1449,0.1467,0.1493,0.1454,0.1453,0.1492,0.1494,0.1496,0.1536,0,0,0,0,0,0,0.1376,0.1386,0.1408,0.1405,0.141,0.145,0.144,0.144,0.147,0.1473,0.147,0.1471,0.145,0.1468,0.1466,0.1491,0.1452,0.149,0.1493,0.1496,0.1533,0.1539,0.1545,0,0,0,0,0,0.1373,0.1395,0.1409,0.1418,0.1439,0.1452,0.1452,0.1461,0.1471,0.1485,0.1484,0.1473,0.1486,0.1468,0.1465,0.1491,0.1488,0.1492,0.1495,0.153,0.1538,0.1545,0,0,0,0,0,0,0.1364,0.1399,0.1414,0.1447,0.1465,0.1458,0.1476,0.1481,0.1488,0.1503,0.148,0.148,0.1509,0.1498,0.1478,0.1515,0.149,0.1493,0.1518,0.1525,0.1531,0.155,0.1452,0,0,0,0,0,0.1375,0.1407,0.1429,0.1458,0.1474,0.1481,0.1492,0.1504,0.1509,0.1515,0.1512,0.1515,0.1513,0.152,0.1518,0.1529,0.1532,0.155,0.1557,0.1562,0.1578,0.1597,0.1606,0.1509,0.1509,0.1509,0,0,0.1378,0.1405,0.1421,0.146,0.1474,0.1493,0.149,0.1524,0.1535,0.1514,0.1534,0.1537,0.1523,0.1538,0.1551,0.1536,0.1593,0.1567,0.1571,0.1584,0.1602,0.1611,0.1619,0.1511,0.1511,0.1511,0,0,0.1396,0.1429,0.1462,0.1484,0.1528,0.1525,0.1547,0.1565,0.1574,0.1593,0.1583,0.161,0.1602,0.16,0.1595,0.1639,0.1627,0.1643,0.1685,0.1703,0.1711,0.1718,0.1736,0.1745,0.1644,0.1645,0.1645,0,0.14,0.1442,0.1471,0.1508,0.1522,0.1546,0.1569,0.1577,0.1598,0.1607,0.1616,0.1632,0.1632,0.1641,0.1663,0.1653,0.166,0.1651,0.171,0.1717,0.1724,0.1741,0.1749,0.1647,0.1647,0.1646,0.1646,0,0.1433,0.1475,0.1496,0.1545,0.1563,0.159,0.1609,0.1634,0.1651,0.1658,0.1694,0.1695,0.1709,0.1715,0.1702,0.1748,0.1737,0.1715,0.1687,0.1736,0.1751,0.1759,0.165,0.1649,0.1649,0.1648,0,0,0.141,0.1501,0.151,0.1535,0.1584,0.1595,0.1626,0.1647,0.1674,0.1705,0.1734,0.1753,0.1777,0.1776,0.1771,0.1795,0.1853,0.1784,0.1784,0.1796,0.1899,0.1758,0.1753,0.1836,0.1838,0.1839,0.1891,0,0.1423,0.149,0.1526,0.1567,0.1592,0.1623,0.1641,0.1672,0.17,0.1738,0.1762,0.1796,0.1788,0.1815,0.1837,0.1855,0.1877,0.1842,0.1857,0.1858,0.172,0.1759,0.1845,0.1897,0.1899,0.1901,0.1901,0,0.1432,0.1475,0.1528,0.1577,0.1591,0.1619,0.1655,0.1681,0.174,0.1769,0.1817,0.184,0.1896,0.1882,0.1936,0.1914,0.192,0.1926,0.1927,0.1789,0.1731,0.1839,0.1916,0.1915,0.1914,0.1913,0.1912,0,0.1387,0.1463,0.1501,0.1521,0.1588,0.1615,0.1645,0.17,0.1727,0.181,0.1852,0.1902,0.1948,0.1968,0.1991,0.1975,0.2039,0.2009,0.1883,0.1874,0.1968,0.1959,0.2043,0.2043,0.2043,0.2043,0.2043,0,0.1364,0.1396,0.1493,0.1517,0.1551,0.1606,0.1652,0.1696,0.1768,0.1806,0.1878,0.191,0.1977,0.2012,0.2016,0.1974,0.2058,0.1902,0.1878,0.1984,0.1977,0.1973,0.1964,0.2045,0.2044,0.2044,0.2044,0,0.1313,0.138,0.1429,0.1514,0.1541,0.157,0.1653,0.1681,0.177,0.1828,0.1862,0.1945,0.1986,0.2024,0.2065,0.1993,0.1977,0.1937,0.2065,0.2046,0.1797,0.179,0.1805,0.18,0.1796,0.1793,0.179,0,0.1288,0.1321,0.1424,0.1448,0.1495,0.1552,0.1584,0.1673,0.1704,0.1822,0.1836,0.192,0.1957,0.1904,0.1953,0.1939,0.1906,0.1886,0.1828,0.1798,0.1773,0.1772,0.1771,0.1784,0.1783,0.1782,0.1781,0,0.1242,0.1302,0.1344,0.1402,0.1447,0.1481,0.1541,0.1552,0.165,0.175,0.176,0.1769,0.1806,0.1815,0.1816,0.1801,0.1893,0.1845,0.1852,0.1797,0.1773,0.1752,0.1755,0.1768,0.177,0.1771,0.1772,0,0.121,0.1225,0.1297,0.1327,0.138,0.1387,0.1429,0.1456,0.1496,0.1623,0.1623,0.1705,0.1791,0.1744,0.1746,0.1719,0.1683,0.1613,0.1632,0.1647,0.1566,0.151,0.141,0,0,0,0,0,0.1164,0.1176,0.1207,0.1232,0.128,0.1309,0.1383,0.1427,0.1528,0.1492,0.1549,0.1571,0.1564,0.1605,0.1541,0.1672,0.1693,0.159,0.1624,0.1694,0.1709,0.1625,0,0,0,0,0,0,0.1134,0.1177,0.1179,0.1146,0.1143,0.118,0.1223,0.1292,0.1275,0.1385,0.1391,0.1468,0.1489,0.1583,0.151,0.1521,0.1506,0.1641,0.1636,0.1685,0.1699,0.1711,0.163,0,0,0,0,0]},{"header":{"parameterUnit":"m.s-1","parameterCategory":2,"la1":30.2991,"la2":30.254,"lo1":-89.0895,"lo2":-89.0444,"dy":0.0017,"dx":0.0017,"nx":28,"ny":28,"refTime":"2023-09-06T21:00:00:Z","depth":"4","parameterNumber":3,"parameterNumberName":"V-component_of_CURRENTS"},"data":[0,0,0,0,0,0,0,0,0,0,0,0,0,0,0,0,0,0,0,0,0,0,0,0,0,0,0,0,0,0,0,0,0,0,0,0,0,0,0,0,0,0,0,0,0,0,0,0,0,0,0,0,0,0,0,0,0,0,0.0183,0.0183,0,0.0172,0.0172,0.0172,0.0165,0.0165,0.0165,0.0165,0.0146,0.0146,0.0145,0,0,0,0,0,0,0,0,0,0,0,0,0,0.0169,0.017,0.0183,0.0183,0.0183,0.0172,0.0172,0.0172,0.0165,0.0165,0.0165,0.0165,0.0147,0.0146,0.0145,0,0,0,0,0,0,0,0,0,0,0,0,0,0.0167,0.017,0.0183,0.0179,0.0178,0.0172,0.0172,0.0172,0.0165,0.0165,0.0165,0.0165,0.0147,0.0146,0.0145,0.0138,0,0,0.0143,0.0142,0,0,0,0,0,0,0,0,0.0168,0.0168,0.0179,0.0179,0.0179,0.0171,0.016,0.016,0.0165,0.0169,0.0165,0.0165,0.0155,0.0153,0.0149,0.0137,0.0136,0.0143,0.0142,0.0142,0.0141,0,0,0,0,0,0,0,0.0168,0.0168,0.0177,0.0179,0.0179,0.0168,0.0168,0.016,0.016,0.0169,0.0168,0.0169,0.0154,0.015,0.0149,0.0136,0.0143,0.0142,0.0141,0.0141,0.0135,0.0135,0,0,0,0,0,0,0.0173,0.0168,0.0178,0.0177,0.0175,0.0169,0.0169,0.0172,0.0161,0.0159,0.0169,0.0169,0.0152,0.015,0.0148,0.0165,0.0142,0.0141,0.014,0.0135,0.0135,0.0135,0,0,0,0,0,0,0.0173,0.0174,0.0178,0.0173,0.0173,0.0169,0.0173,0.0172,0.0176,0.0161,0.0159,0.0174,0.0152,0.0149,0.015,0.0164,0.0141,0.014,0.0134,0.0135,0.0135,0.0183,0,0,0,0,0,0,0.0172,0.0174,0.0179,0.0174,0.0174,0.0184,0.0173,0.0172,0.0176,0.0176,0.0165,0.0163,0.0151,0.0151,0.0149,0.0162,0.0139,0.0134,0.0134,0.0135,0.0181,0.0185,0.0188,0,0,0,0,0,0.0172,0.0182,0.0179,0.0181,0.0181,0.0184,0.0184,0.018,0.0176,0.0182,0.0175,0.0164,0.0154,0.0151,0.0148,0.0161,0.0133,0.0134,0.0135,0.0179,0.0184,0.0188,0,0,0,0,0,0,0.0177,0.0182,0.0179,0.019,0.019,0.0184,0.0189,0.0185,0.0183,0.0184,0.0168,0.0166,0.0171,0.0158,0.0155,0.016,0.0142,0.0142,0.0176,0.018,0.0184,0.0194,0.0138,0,0,0,0,0,0.0181,0.0192,0.0191,0.0199,0.0202,0.0196,0.0197,0.0196,0.0193,0.0192,0.0185,0.0176,0.017,0.017,0.0161,0.0165,0.0146,0.0171,0.0174,0.0178,0.0184,0.0161,0.0163,0.0138,0.0138,0.0138,0,0,0.0185,0.019,0.0195,0.0201,0.0201,0.0212,0.0197,0.0205,0.0217,0.019,0.0203,0.0189,0.0174,0.0179,0.018,0.0171,0.0175,0.0179,0.0182,0.0186,0.0162,0.0164,0.0167,0.0138,0.0138,0.0138,0,0,0.0202,0.0204,0.0219,0.0224,0.023,0.0227,0.0233,0.0232,0.0236,0.0243,0.0227,0.0223,0.0215,0.0208,0.0203,0.0222,0.0195,0.0217,0.0248,0.0226,0.0228,0.0229,0.021,0.021,0.0221,0.0221,0.0221,0,0.0206,0.0226,0.0223,0.024,0.0248,0.0238,0.0257,0.0258,0.0258,0.0264,0.0255,0.0245,0.0231,0.0237,0.0243,0.0232,0.0213,0.0234,0.0231,0.0232,0.0233,0.0213,0.0212,0.0224,0.0223,0.0223,0.0223,0,0.0237,0.0251,0.0261,0.028,0.0288,0.0302,0.0305,0.0315,0.0315,0.0312,0.0319,0.0298,0.0292,0.0286,0.0271,0.0273,0.0255,0.0238,0.0222,0.0239,0.0216,0.0214,0.0227,0.0226,0.0225,0.0225,0,0,0.025,0.0278,0.0282,0.0298,0.0311,0.0322,0.0345,0.036,0.0378,0.0371,0.0387,0.0373,0.0357,0.0349,0.0327,0.031,0.0297,0.0279,0.0277,0.0264,0.0249,0.0236,0.0231,0.0276,0.0276,0.0276,0.0232,0,0.0275,0.0312,0.0321,0.0356,0.0374,0.0379,0.0402,0.0413,0.0417,0.0429,0.041,0.0413,0.0382,0.0381,0.0358,0.0314,0.0293,0.0311,0.0231,0.0229,0.0218,0.0229,0.0276,0.023,0.023,0.023,0.0229,0,0.0306,0.0324,0.0363,0.0398,0.0408,0.043,0.0464,0.0484,0.0495,0.0497,0.0493,0.0472,0.0455,0.0421,0.0357,0.0368,0.0314,0.0275,0.0271,0.0242,0.0212,0.0208,0.0225,0.0225,0.0226,0.0226,0.0226,0,0.032,0.0358,0.039,0.0401,0.0436,0.0461,0.0484,0.0505,0.0533,0.0541,0.0554,0.0522,0.0514,0.0446,0.0368,0.036,0.029,0.0266,0.0203,0.0201,0.0205,0.0203,0.0214,0.0215,0.0215,0.0215,0.0215,0,0.0345,0.0372,0.0401,0.0419,0.0465,0.0483,0.0535,0.0554,0.0583,0.0617,0.059,0.0599,0.0518,0.0468,0.0386,0.0294,0.0301,0.0212,0.019,0.0226,0.0227,0.0203,0.0202,0.0213,0.0213,0.0214,0.0214,0,0.0357,0.0377,0.0414,0.0454,0.0475,0.0508,0.0575,0.061,0.0633,0.0676,0.0683,0.0659,0.0597,0.0509,0.0401,0.0324,0.0232,0.0194,0.0248,0.0229,0.0152,0.0155,0.0121,0.012,0.0119,0.0119,0.0118,0,0.0367,0.0385,0.0436,0.0465,0.0488,0.0543,0.0587,0.0633,0.0671,0.0711,0.073,0.0693,0.066,0.0507,0.0403,0.0252,0.0221,0.0169,0.0151,0.0161,0.0143,0.0147,0.015,0.0117,0.0117,0.0117,0.0117,0,0.0375,0.0392,0.0419,0.0478,0.053,0.0592,0.0657,0.0688,0.0742,0.0762,0.0767,0.0698,0.0628,0.0507,0.0394,0.028,0.0202,0.0161,0.0161,0.0144,0.0157,0.014,0.0144,0.0114,0.0115,0.0115,0.0115,0,0.0377,0.0393,0.043,0.0486,0.0554,0.0623,0.0659,0.0708,0.0749,0.0788,0.0785,0.0717,0.0681,0.0521,0.0416,0.0308,0.0268,0.0214,0.0211,0.0212,0.0246,0.0276,0.0257,0,0,0,0,0,0.0366,0.0388,0.0438,0.0501,0.0573,0.0618,0.0699,0.0731,0.078,0.0785,0.0788,0.0723,0.0579,0.0521,0.041,0.0387,0.0241,0.025,0.0176,0.0101,0.0104,0.0127,0,0,0,0,0,0,0.036,0.0397,0.0426,0.0507,0.0555,0.0639,0.0694,0.0731,0.0734,0.0763,0.0691,0.0672,0.0534,0.0639,0.0399,0.037,0.0301,0.0191,0.0188,0.01,0.0102,0.0104,0.0129,0,0,0,0,0]}]]